Wind_Speed
2 4 4 2 2 4 3 2 2 2 2 1 5 2 4 5 3 5 9 5 2 3 4 7 7 7 8 10 11 10 7 1 2 4 2 4 18 24 22 30 36 33 32 27 23 21 20 21 21 23 24 24 25 24 24 23 23 23 21 20 20 20 19 18 17 16 15 16 16 16 16 16 16 17 17 17 16 15 14 13 13 13 14 16 17 17 17 16 15 14 14 13 13 12 11 11 13
2 3 3 2 2 2 1 2 3 1 4 2 4 4 5 4 4 6 9 3 6 3 6 11 11 13 14 13 10 10 10 6 4 4 3 15 22 19 27 34 36 35 32 27 23 22 20 21 22 24 24 24 25 24 23 23 24 23 22 20 19 20 19 17 16 15 15 15 16 16 16 16 16 16 16 15 14 13 12 12 12 13 14 15 17 17 15 15 14 13 13 13 12 11 10 11 12
1 1 2 3 2 2 0 3 3 2 4 3 4 3 5 5 7 8 8 4 11 7 7 9 9 7 7 9 6 6 5 3 8 7 7 18 16 17 30 33 34 34 31 28 24 23 22 22 23 24 24 24 24 24 23 22 24 23 22 20 20 20 18 17 15 15 15 15 16 16 16 16 16 16 15 14 13 13 12 12 12 13 13 15 15 15 14 14 13 13 12 12 11 10 10 11 12
2 2 2 3 2 2 3 2 2 3 3 4 3 5 5 4 8 7 7 5 9 8 6 5 6 5 5 12 5 5 6 3 7 8 7 12 15 21 28 28 30 31 30 28 25 24 22 23 23 23 24 24 24 23 23 22 23 23 22 21 20 19 18 17 15 14 15 15 16 16 16 16 15 15 15 14 14 14 13 13 13 14 13 14 14 13 13 13 13 12 11 11 10 10 11 11 13
2 2 2 2 3 1 2 1 1 4 4 4 2 5 6 5 6 6 6 2 3 9 7 4 4 2 6 7 1 3 5 6 7 9 10 13 22 26 23 23 23 22 25 26 24 23 22 23 22 23 23 23 23 22 22 22 22 22 22 21 20 19 18 16 14 14 15 16 15 15 15 15 15 14 15 14 14 14 14 13 13 13 13 13 13 12 12 12 12 11 11 10 10 9 9 11 12
2 3 0 1 1 1 2 0 1 3 6 4 3 6 8 10 7 7 6 4 6 9 10 6 7 5 4 3 2 3 3 8 9 10 15 20 26 27 25 24 21 16 15 17 20 21 21 21 21 21 22 22 22 21 22 21 21 21 21 20 19 19 17 16 14 15 16 16 15 15 14 14 14 14 14 14 13 12 12 12 11 12 13 13 13 12 11 12 12 11 10 9 9 8 8 8 10
5 4 1 2 2 1 3 2 4 5 5 5 4 7 10 12 9 8 7 2 6 5 9 9 10 9 3 0 2 6 5 11 11 15 24 27 28 30 32 32 30 24 15 11 15 18 19 19 20 20 21 21 21 21 21 20 20 20 20 20 19 18 17 16 15 16 17 16 16 15 14 14 14 14 14 13 12 11 11 10 10 11 11 12 12 12 11 12 12 10 8 8 7 7 7 6 8
5 2 1 3 2 2 3 3 4 5 4 3 5 8 11 13 9 6 6 0 3 2 7 8 8 9 2 2 4 8 14 21 22 28 33 32 30 28 29 31 31 28 21 15 14 14 16 18 19 20 21 21 21 21 20 20 20 20 20 19 18 17 17 17 17 17 17 17 16 15 14 14 13 13 13 12 12 11 10 10 10 10 11 10 10 11 11 11 9 7 6 6 6 6 6 6 9
3 1 1 3 2 2 0 3 4 5 5 5 7 9 12 11 10 8 5 2 5 6 5 6 5 8 4 7 7 5 15 27 31 33 34 32 30 28 25 26 26 26 24 22 18 14 14 17 19 20 21 21 21 21 21 20 20 20 19 19 18 17 18 18 18 17 17 16 15 14 14 13 13 13 12 11 11 10 10 9 10 10 9 9 9 9 9 9 7 5 4 5 6 6 6 5 9
2 1 1 2 2 1 3 4 4 4 5 6 8 12 14 11 10 11 4 6 7 5 2 2 7 9 9 9 6 4 9 26 34 31 32 32 31 31 28 25 24 27 27 25 22 17 14 16 18 20 21 21 22 22 21 21 21 21 20 19 18 18 19 18 18 17 17 16 15 14 14 13 13 12 12 11 10 10 10 9 9 9 8 8 8 9 8 7 5 4 4 6 6 6 6 6 9
2 2 1 2 2 1 3 4 4 5 7 7 9 14 14 10 8 5 5 7 4 6 5 5 9 10 10 6 3 6 13 26 31 29 30 32 31 30 31 28 26 29 29 25 24 21 16 15 17 19 20 21 22 22 22 21 21 22 21 20 19 18 18 18 18 17 16 15 15 15 14 13 12 12 11 10 10 10 9 9 9 9 8 8 8 8 8 7 5 6 6 6 6 7 7 7 8
2 2 3 3 1 3 4 4 5 6 8 8 9 11 7 3 4 2 8 7 4 6 5 3 8 9 9 4 2 8 18 22 25 29 29 31 30 28 31 30 28 30 29 24 24 24 21 17 17 18 19 21 21 21 21 22 21 21 21 20 19 18 17 17 17 16 16 15 15 15 14 13 12 11 10 9 9 9 9 9 8 8 8 8 7 8 8 7 7 7 7 7 8 8 8 7 7
2 2 4 1 3 3 4 4 5 6 7 6 6 8 5 5 4 4 7 7 7 6 3 5 11 7 7 4 3 7 12 15 23 28 29 31 28 27 31 29 28 31 29 25 22 23 23 19 19 19 18 19 19 20 20 21 21 21 21 19 18 17 17 16 16 16 15 14 14 14 13 12 11 11 10 9 8 8 9 9 9 8 8 8 7 8 8 8 8 7 7 8 9 9 9 7 6
3 2 4 1 2 2 5 3 3 4 5 7 5 7 6 3 2 4 7 8 3 3 4 8 12 9 5 4 3 3 7 15 25 29 30 30 26 26 28 28 29 30 29 29 25 22 23 21 21 20 19 19 19 19 19 19 20 20 20 19 18 17 17 16 15 15 14 14 13 12 11 11 10 10 9 9 8 8 8 8 9 9 8 8 8 8 8 9 9 7 7 8 9 9 8 8 7
5 1 4 1 3 3 4 3 3 3 5 7 5 3 5 3 2 4 8 7 3 3 8 6 5 6 6 8 5 6 11 20 26 31 33 30 27 26 24 25 28 29 28 28 26 23 23 22 21 21 20 20 19 18 18 18 19 20 19 18 18 17 17 16 15 14 13 13 12 11 10 9 9 8 8 8 8 8 7 8 8 9 8 8 8 8 8 9 8 7 7 7 8 7 7 7 6
4 1 2 1 3 3 4 3 1 1 5 6 6 4 5 6 3 4 4 6 3 1 5 3 3 4 10 9 10 17 21 25 29 34 34 30 28 25 23 23 25 28 27 24 22 21 22 21 21 20 19 19 18 18 18 18 18 19 18 18 17 16 16 15 14 13 12 11 11 11 10 9 8 7 7 7 7 8 8 7 7 8 8 8 8 7 8 8 7 7 7 7 7 6 6 6 6
2 2 1 2 4 4 4 2 1 1 6 6 10 6 6 5 6 2 5 9 7 4 4 2 3 5 10 10 22 30 29 30 33 33 31 28 26 23 23 23 23 25 23 20 19 21 21 21 20 19 18 18 18 18 18 18 18 18 18 17 15 15 14 13 13 12 11 11 10 10 9 9 8 7 7 7 7 7 8 7 7 7 8 8 7 7 7 7 6 6 6 7 6 6 5 5 5
2 2 3 4 4 5 3 2 1 4 7 8 8 4 6 2 4 2 6 9 8 8 7 6 9 10 13 21 32 33 31 33 33 32 26 23 21 19 20 22 24 23 20 17 18 21 21 20 19 18 18 17 17 17 18 18 17 17 17 16 15 14 13 12 12 12 11 10 10 9 9 8 8 7 6 7 7 7 7 7 7 7 7 8 7 6 6 6 6 5 6 6 5 5 4 4 4
3 2 2 5 5 4 1 2 3 4 6 7 6 5 5 1 3 1 4 5 7 10 5 6 12 13 16 22 28 27 29 29 28 29 24 21 20 19 20 21 24 24 22 20 20 20 20 20 18 18 18 17 17 17 17 17 17 16 16 16 15 14 13 12 12 12 11 11 10 9 9 9 8 8 7 6 7 7 7 7 7 7 7 7 6 6 6 6 5 5 5 5 5 4 3 2 3
2 3 3 5 5 5 4 3 5 6 7 5 5 6 5 2 3 1 5 6 5 8 5 5 11 13 15 15 18 22 22 21 22 24 22 21 22 22 23 22 22 23 24 24 22 20 20 19 18 18 18 17 17 17 17 16 16 16 16 15 14 14 13 13 12 12 11 11 10 10 9 9 9 8 7 7 7 7 7 7 7 7 7 6 6 6 6 6 5 5 5 5 5 4 3 2 3
2 4 5 6 5 6 7 7 6 6 8 5 3 4 6 6 3 1 4 5 1 5 8 9 14 16 17 15 14 16 16 16 17 18 19 19 19 21 23 23 21 21 22 23 22 20 19 19 18 17 17 17 17 17 17 16 16 16 16 15 14 14 14 14 13 12 12 11 10 10 9 9 9 8 8 8 8 7 8 8 7 7 7 6 6 6 6 6 5 5 5 5 5 4 4 3 3
2 4 6 8 6 5 7 7 7 6 7 6 2 3 3 5 4 4 1 5 4 5 7 12 18 19 19 17 14 13 12 12 13 14 16 16 16 18 20 22 21 19 20 21 21 20 20 20 19 18 16 16 16 16 16 16 17 16 16 15 15 15 15 14 13 12 11 11 10 10 9 9 8 8 8 8 8 8 9 9 8 8 8 7 7 6 7 7 6 5 4 5 5 5 5 4 4
3 6 6 9 8 6 7 6 5 5 4 4 2 0 1 4 5 4 2 3 5 3 9 13 15 16 19 17 13 12 11 10 9 9 13 16 18 18 21 23 21 20 19 19 20 20 21 20 19 18 17 16 16 15 15 16 16 17 16 16 16 16 16 15 14 13 12 12 11 10 9 9 8 8 8 8 9 9 10 9 9 9 9 9 8 8 8 7 6 5 4 4 5 6 6 5 4
5 6 7 9 9 8 10 7 5 6 5 6 3 0 1 1 3 2 3 1 3 10 12 14 14 15 18 15 12 12 11 11 10 8 9 13 17 18 21 24 22 20 17 17 20 20 21 20 18 18 18 17 17 16 15 16 16 17 17 17 17 16 17 16 15 14 13 13 12 10 10 9 9 9 8 8 10 11 11 10 10 9 9 9 9 8 9 7 6 5 4 4 4 6 7 6 4
5 7 9 8 8 9 10 8 6 7 6 7 5 2 5 5 2 3 3 6 11 14 13 14 15 16 15 14 13 12 11 12 12 12 9 8 13 16 18 22 21 19 16 17 19 17 17 17 18 18 18 19 18 17 16 16 17 18 18 17 16 16 17 16 15 14 13 13 13 11 10 10 10 10 9 10 12 12 12 11 10 10 10 10 9 9 9 8 7 6 5 5 5 5 6 6 5
6 8 8 8 9 10 9 7 6 7 5 5 6 4 7 6 4 4 2 9 13 13 13 14 16 16 14 13 12 11 12 11 12 15 11 9 14 16 17 19 19 20 18 17 19 16 13 15 19 20 19 20 19 19 18 17 17 18 19 17 16 16 16 16 15 14 14 14 14 13 11 10 10 10 10 11 12 12 12 12 11 11 10 10 10 10 9 9 8 6 6 6 6 6 6 6 6
5 6 7 8 10 9 7 6 6 5 3 5 5 6 7 4 4 2 1 8 14 14 13 13 14 14 13 12 10 11 11 12 16 19 15 13 16 19 18 18 20 22 18 19 24 22 16 17 20 22 21 21 20 19 18 17 17 18 18 18 16 15 14 14 14 14 14 13 14 14 12 11 11 11 11 12 12 12 12 12 12 12 11 11 11 10 10 10 8 7 7 6 6 6 6 6 6
6 6 7 8 7 6 4 3 4 2 3 4 5 5 4 2 3 8 7 8 14 16 14 12 13 12 12 12 10 9 9 13 18 19 16 15 18 22 22 20 23 23 20 21 25 25 23 21 22 24 23 22 21 19 18 18 17 17 17 17 16 14 14 14 14 13 13 12 12 13 13 13 13 13 13 12 12 13 12 12 12 12 11 10 10 10 9 10 10 8 7 7 7 7 6 6 6
8 5 4 7 5 5 6 4 3 1 3 3 2 3 5 3 3 12 13 9 11 15 14 12 12 10 10 10 8 7 8 12 14 14 16 19 20 22 24 22 24 25 22 22 23 25 26 24 24 26 25 23 21 19 19 18 17 16 15 15 14 14 14 15 14 14 13 12 12 13 14 14 14 15 15 13 12 12 11 10 11 10 10 9 10 10 9 10 10 9 8 8 8 7 7 8 7
6 4 1 4 6 6 7 4 5 3 3 3 3 2 7 5 4 15 14 12 13 14 13 11 11 10 9 9 8 7 9 10 12 14 17 21 22 23 25 24 24 26 26 24 25 25 24 24 26 26 25 24 21 19 18 18 16 14 13 14 13 14 14 14 14 14 14 13 13 14 14 15 15 15 14 14 13 11 10 9 9 9 9 9 9 10 9 10 9 9 9 8 8 8 9 10 8
3 4 3 3 2 6 6 4 4 4 3 5 5 4 8 3 10 17 14 15 16 14 12 11 11 10 9 9 8 8 8 10 15 18 20 25 26 25 28 28 26 28 28 28 29 28 28 27 28 27 26 25 22 20 18 18 16 14 13 13 13 13 13 14 13 14 13 13 13 13 14 15 15 15 14 14 13 13 11 10 9 8 9 9 10 10 10 10 10 8 7 7 8 10 11 10 9
2 2 4 3 2 6 7 4 6 6 4 6 7 5 7 3 12 17 13 14 15 15 12 11 11 11 10 8 8 8 6 9 15 20 24 28 29 28 32 32 27 28 30 30 30 30 31 29 29 29 27 25 22 20 19 18 16 14 14 12 10 10 11 13 13 13 13 12 11 11 13 15 15 15 15 15 15 14 13 12 10 9 9 9 9 10 10 10 9 8 8 8 9 9 10 9 8
4 1 3 4 4 4 6 6 6 10 5 3 8 5 4 3 12 16 15 15 14 15 12 12 12 11 10 8 8 7 5 7 9 16 23 27 27 27 32 30 23 27 32 33 34 34 33 31 31 31 28 25 22 20 20 19 16 14 14 13 10 8 9 11 11 11 12 10 10 10 11 13 14 14 15 15 14 14 14 13 12 10 10 9 8 9 11 11 8 8 10 9 9 8 7 5 4
4 2 1 4 5 4 5 7 6 9 8 6 8 7 3 2 9 14 14 15 15 15 13 12 11 9 9 8 8 7 8 8 8 14 21 24 22 20 26 26 22 30 34 33 36 36 35 34 33 31 28 24 21 21 21 19 16 14 13 12 11 11 10 10 9 8 8 7 7 7 8 9 10 11 12 13 12 12 12 11 12 11 9 8 8 9 11 12 10 9 10 10 8 7 6 5 4
3 3 2 3 4 4 7 9 6 7 10 9 7 7 6 0 9 12 12 14 13 13 13 12 11 10 9 8 8 8 9 9 10 16 21 22 18 13 19 20 21 32 35 32 35 34 33 32 30 29 26 23 22 22 22 18 16 16 14 12 12 13 13 12 10 8 8 6 5 4 4 4 5 7 9 9 9 9 9 9 10 9 8 7 8 9 10 12 12 10 10 10 8 6 5 6 5
7 5 4 4 4 4 8 12 7 9 9 8 9 8 6 2 7 10 9 10 10 11 11 11 10 10 9 8 8 9 10 10 12 17 20 19 17 14 17 18 21 32 34 32 33 31 31 30 28 27 25 24 24 24 22 19 19 20 19 17 15 14 14 14 12 10 9 7 6 4 3 3 3 5 6 6 6 7 7 8 9 8 7 6 7 8 8 11 13 11 9 9 8 6 6 7 6
6 2 2 3 3 5 8 8 3 8 8 4 6 7 2 2 5 7 5 5 7 10 10 10 10 9 9 10 10 9 8 7 10 15 18 18 19 18 18 20 24 30 31 32 30 28 28 27 27 26 24 24 23 23 23 21 22 23 23 21 18 16 15 14 13 11 9 8 6 4 4 4 4 5 4 4 5 5 5 4 5 5 5 5 5 6 7 8 11 11 9 8 8 6 6 7 7
1 2 1 5 2 4 8 5 4 4 6 0 1 8 5 4 3 5 9 8 8 11 12 11 12 11 9 11 11 9 6 4 7 11 15 18 21 20 20 23 25 27 30 30 29 27 26 25 25 25 23 22 21 22 23 22 22 23 24 23 21 18 15 13 13 12 11 10 9 6 4 4 4 5 5 5 5 5 5 6 5 5 4 5 5 5 6 7 9 10 10 9 8 7 6 6 6
1 1 1 4 3 4 7 5 6 5 5 1 0 6 5 7 3 4 13 12 9 12 14 14 14 11 9 11 12 10 7 7 7 9 11 16 19 20 22 24 25 27 29 28 27 26 24 24 23 24 24 21 21 22 22 21 21 21 22 24 24 21 17 14 13 11 10 9 8 6 5 4 4 3 5 6 6 5 6 6 7 7 6 6 6 6 6 7 7 8 9 9 8 7 6 6 5
1 1 2 2 4 1 4 6 6 5 3 1 2 3 2 5 4 2 9 10 9 10 11 11 12 13 13 13 12 11 11 11 10 9 9 12 16 18 22 23 23 26 28 27 27 26 25 24 23 24 24 22 22 22 21 20 20 21 22 24 23 20 17 14 12 11 9 8 7 6 4 4 4 5 5 5 5 6 6 5 7 7 7 6 6 5 5 4 5 5 7 7 6 5 6 6 6
3 3 3 3 2 2 4 5 5 6 5 3 5 5 4 4 5 2 0 4 7 8 8 9 9 10 10 9 10 12 13 13 13 12 9 10 13 17 21 23 23 26 28 28 28 27 25 24 24 24 24 23 23 22 20 20 21 23 24 23 21 19 17 14 14 12 11 10 9 7 5 4 5 5 5 5 6 7 6 6 7 8 8 8 7 6 5 4 3 3 4 5 4 4 5 6 6
4 4 6 6 4 5 6 5 5 6 6 3 5 3 5 4 4 4 3 3 8 8 10 11 8 6 7 8 10 10 10 11 13 14 13 11 12 16 20 23 24 25 27 28 28 26 25 24 23 24 25 23 22 20 20 21 22 24 25 24 22 22 19 16 16 15 13 12 10 9 7 6 6 5 5 5 6 7 7 7 7 8 8 10 10 9 9 9 8 5 3 4 5 4 5 7 6
2 5 6 6 5 4 4 2 3 3 2 3 4 5 4 5 4 6 3 5 9 7 8 10 9 8 9 9 10 10 10 9 9 11 11 10 13 16 18 22 24 25 26 28 27 25 25 24 23 25 25 21 20 21 22 22 23 24 24 23 22 22 21 18 17 16 14 13 11 9 8 7 6 6 6 7 7 7 6 6 7 8 9 11 11 11 11 12 12 10 7 4 4 5 6 7 8
3 7 5 6 5 6 5 4 4 2 3 4 4 5 2 4 5 5 1 4 4 6 6 7 9 11 11 10 11 11 11 10 8 8 8 9 13 16 19 22 25 27 28 29 28 26 26 25 24 26 24 21 22 24 24 24 24 25 24 22 22 22 22 20 18 17 16 15 13 12 10 9 7 7 7 8 8 8 7 9 11 11 12 12 11 11 10 11 11 11 11 9 6 4 4 4 6
6 7 5 5 6 7 6 6 4 0 1 4 6 3 3 4 6 4 2 4 4 7 5 7 11 13 12 11 11 10 10 10 10 10 10 10 13 19 23 25 26 28 31 31 30 28 27 26 26 27 24 23 26 26 25 25 25 25 24 23 23 22 22 22 20 19 18 17 16 14 13 12 9 8 7 8 10 12 12 13 13 12 12 12 12 12 11 11 11 10 10 10 9 8 5 5 6
6 3 1 0 3 3 4 5 3 4 4 2 6 1 2 3 5 5 4 2 3 4 3 5 10 12 11 10 10 9 8 9 10 11 11 13 18 22 25 26 25 27 30 31 31 30 30 29 29 29 26 26 29 27 26 26 25 25 24 24 24 24 24 23 21 21 19 18 17 15 14 13 11 9 8 8 10 12 13 12 11 11 11 12 12 12 12 12 11 10 10 10 9 10 10 9 9
3 2 4 5 5 4 3 3 4 4 2 5 6 2 5 1 5 3 2 2 4 5 1 1 7 10 10 10 9 9 9 9 10 9 8 11 17 19 21 23 24 26 26 28 31 31 32 31 31 31 28 27 30 29 27 27 25 24 24 25 25 26 27 25 24 24 21 19 18 17 16 14 13 11 10 10 11 12 12 11 11 12 12 12 11 11 11 10 9 9 10 11 11 11 12 11 11
2 4 4 4 4 5 5 4 4 3 2 6 6 1 7 2 5 4 5 5 2 7 6 6 8 8 8 8 8 8 8 8 7 6 6 7 9 11 15 18 21 23 23 25 29 30 32 33 32 32 30 29 30 29 28 27 26 25 25 25 25 27 27 26 26 26 23 21 19 18 17 15 14 12 10 11 12 13 12 11 11 12 12 12 11 10 10 9 8 8 9 10 10 10 10 9 10
5 4 5 4 2 4 3 3 2 1 3 5 4 2 4 2 5 6 7 8 2 3 6 9 10 8 8 8 8 7 6 7 6 6 6 6 7 9 13 16 19 22 23 25 27 28 30 31 32 32 30 29 29 28 27 26 26 26 26 25 25 26 25 25 26 26 24 22 21 21 19 17 15 14 13 12 13 14 12 12 12 12 11 11 10 10 9 8 8 8 9 9 10 10 9 9 10
4 3 4 4 2 3 1 3 1 1 3 4 2 3 1 3 3 4 5 4 1 4 6 7 9 10 9 8 8 8 7 7 6 6 5 5 6 9 14 17 20 22 22 24 26 27 29 29 30 29 23 22 24 23 23 24 25 25 24 25 26 25 24 24 25 25 24 22 21 22 20 19 18 16 15 14 14 14 14 13 13 12 11 10 9 9 9 9 9 10 11 10 10 9 9 10 11
3 4 5 4 4 4 3 3 2 2 3 4 4 2 2 2 2 4 3 6 7 8 8 8 9 8 8 9 9 9 8 7 6 6 6 4 5 10 16 18 19 20 20 22 23 23 22 19 14 10 13 15 19 20 21 23 23 22 21 24 26 25 24 24 24 24 23 22 21 20 19 19 19 18 17 16 15 15 15 14 14 14 12 10 9 9 8 8 9 11 11 11 11 9 10 11 10
3 2 6 2 4 6 3 3 5 4 1 2 2 0 3 3 2 3 4 8 9 10 10 11 10 7 8 9 8 8 7 6 6 6 5 5 7 7 12 18 19 18 19 19 19 19 17 13 10 6 9 14 22 25 26 25 22 20 20 23 24 24 25 24 24 23 22 21 20 18 17 18 18 18 18 17 16 14 14 14 14 15 13 11 10 9 7 7 8 9 10 10 11 9 10 11 10
1 2 2 4 4 7 5 1 2 4 3 2 1 1 3 2 2 4 5 7 8 9 10 11 10 7 8 8 6 6 6 6 5 5 5 5 8 10 6 13 18 18 19 18 18 19 19 19 21 18 15 19 26 28 28 27 25 21 20 22 24 25 26 25 23 23 22 21 19 17 16 17 17 17 18 18 16 13 12 13 14 15 14 12 11 9 7 7 7 7 8 9 9 8 9 11 10
3 1 3 2 3 4 4 2 2 4 2 4 1 2 1 1 1 4 6 4 3 4 7 11 11 9 9 7 7 7 6 6 6 5 6 6 8 12 12 9 14 18 19 19 18 19 20 21 22 22 19 21 25 26 27 29 28 26 22 21 24 26 25 24 22 21 22 21 20 18 17 17 17 16 16 16 15 13 12 11 12 13 14 13 11 9 7 6 6 7 6 6 6 5 7 8 8
5 4 2 3 3 1 1 2 1 2 2 3 2 0 1 1 3 4 4 0 1 3 2 6 8 9 9 7 7 8 7 7 6 6 6 6 9 12 14 14 12 14 16 18 20 19 20 21 20 19 18 20 22 22 22 21 21 24 25 23 24 25 24 23 22 21 22 21 21 21 20 19 18 16 16 15 14 13 11 11 10 11 12 12 11 9 8 7 6 6 5 5 5 4 4 6 6
3 2 3 3 3 3 1 2 2 3 2 2 1 2 1 3 4 3 4 4 6 5 3 3 4 5 7 7 7 7 7 6 6 6 6 6 9 12 16 18 16 14 12 14 17 18 18 18 19 19 17 18 20 20 20 19 17 21 25 25 25 26 24 24 23 22 23 23 22 22 21 21 19 18 16 15 14 13 11 11 10 10 10 10 10 9 8 8 7 6 5 6 6 5 4 3 4
4 3 1 1 2 1 2 1 1 3 3 2 1 1 3 5 3 2 5 3 6 9 7 4 3 4 4 6 7 6 6 6 5 6 6 6 9 13 16 18 20 18 15 12 13 14 16 17 19 22 21 19 20 22 24 25 26 25 25 25 26 26 24 24 25 25 25 24 24 23 21 21 21 19 17 15 13 12 10 10 9 10 10 9 10 9 8 8 9 8 7 6 6 6 5 4 3
2 2 2 3 3 3 3 1 2 1 3 3 4 2 5 5 2 3 4 3 5 8 10 7 4 5 4 4 6 6 6 6 5 6 6 6 9 12 14 17 19 20 18 15 14 14 17 20 20 21 22 20 20 23 25 25 26 24 22 21 22 24 25 25 26 28 27 26 26 25 22 21 20 19 18 16 14 12 11 10 9 9 9 9 9 9 9 9 10 10 10 9 8 8 8 7 6
Wind_Direction
328 95 77 64 348 350 355 90 83 314 92 249 260 216 260 237 242 292 293 287 77 354 57 68 69 91 98 103 113 93 51 53 159 143 184 161 142 153 161 158 155 154 157 159 161 157 157 154 147 143 140 138 140 141 142 143 142 141 137 133 132 132 129 122 119 118 120 121 123 124 125 125 125 126 123 121 118 116 114 110 111 109 106 105 100 99 102 101 100 100 99 99 98 99 101 107 111
124 98 51 23 341 25 240 98 97 326 67 302 262 177 258 297 299 277 268 253 111 168 106 87 81 88 104 118 118 83 51 30 93 107 98 123 131 148 158 157 154 155 156 158 159 155 153 152 147 143 141 139 140 141 142 144 143 142 138 134 132 133 130 124 120 120 124 124 125 125 127 127 128 130 128 126 123 120 116 114 114 110 105 104 102 103 104 101 101 100 100 99 97 99 97 107 114
205 353 32 24 11 97 73 47 101 109 93 246 265 230 268 311 279 254 244 163 134 151 104 84 74 77 109 102 66 67 89 65 90 97 108 125 125 141 151 152 151 154 155 157 158 156 154 152 149 144 142 140 139 140 141 144 143 142 140 136 134 135 132 128 124 125 127 129 128 126 128 128 128 130 130 130 125 122 118 117 116 111 107 105 105 105 105 104 104 102 102 98 97 97 89 103 117
271 328 5 34 52 38 57 68 136 126 158 230 274 269 258 264 263 249 239 196 153 139 98 81 60 359 64 87 70 73 108 119 107 111 113 124 130 140 143 144 148 151 154 157 158 157 155 152 149 144 143 141 139 139 139 142 143 143 141 139 137 137 136 132 130 130 131 133 130 127 129 129 130 131 132 130 127 124 120 118 114 110 108 108 109 107 107 108 109 108 105 96 95 97 90 101 118
294 342 318 60 83 5 92 114 131 135 210 207 205 262 277 277 271 266 263 289 110 117 112 109 97 354 53 81 120 97 117 131 110 99 94 110 126 131 127 128 134 141 150 155 156 155 151 149 147 145 142 139 139 138 138 141 142 143 143 142 140 139 138 135 134 133 134 136 135 132 132 132 133 134 134 133 131 128 125 122 117 115 116 118 116 116 120 116 114 113 108 99 93 93 92 103 120
0 24 10 105 118 227 107 191 224 220 236 187 203 265 286 294 290 280 282 24 56 105 110 98 119 127 80 39 38 77 147 127 99 91 100 111 123 127 126 129 127 126 134 143 149 147 145 146 145 143 139 137 137 136 137 140 142 143 144 144 141 140 139 138 138 136 136 138 139 138 136 136 136 136 136 135 132 127 126 125 124 124 126 130 126 124 126 123 121 119 113 108 101 96 95 106 125
8 24 68 66 336 22 104 200 218 248 241 178 221 262 273 282 286 290 284 55 55 68 95 112 131 117 85 70 60 10 63 109 105 109 118 124 132 138 142 146 144 140 134 128 137 140 144 145 142 140 137 136 136 136 137 138 140 141 143 143 142 141 141 141 140 137 137 139 140 141 141 140 138 138 136 134 130 124 123 122 123 126 129 135 136 132 130 129 130 125 116 110 108 100 95 107 131
10 18 109 82 18 19 103 242 238 230 241 200 229 254 261 269 282 296 281 3 88 73 97 140 131 98 26 83 86 15 68 103 109 117 125 128 132 134 141 146 142 141 141 135 131 139 146 145 142 139 135 135 135 137 137 137 138 139 143 143 143 143 142 141 139 137 136 138 140 141 143 143 142 138 135 131 127 124 120 118 120 125 131 136 139 141 140 139 135 126 109 105 107 97 88 101 132
26 73 22 84 86 353 11 271 262 237 261 279 268 262 256 260 275 262 247 60 116 126 129 180 119 100 125 81 85 39 77 103 108 115 124 125 127 131 139 141 136 137 144 145 142 144 149 147 143 138 134 134 135 136 136 137 138 140 142 143 144 143 142 141 139 138 138 139 140 141 142 142 140 135 131 127 125 124 120 119 121 125 132 133 133 138 144 146 140 127 110 106 102 96 89 99 134
26 128 103 88 90 335 299 263 253 269 276 273 270 266 259 245 244 245 206 108 126 124 129 129 79 111 126 93 85 42 87 108 107 110 120 127 136 144 146 144 143 146 151 150 144 143 151 153 145 139 135 134 134 135 136 138 141 142 142 142 143 144 143 142 141 142 142 142 142 141 141 139 137 132 129 127 124 123 122 123 123 126 130 131 134 133 136 143 145 136 123 113 99 100 102 106 138
15 312 118 89 66 229 258 258 262 288 285 287 278 270 264 229 210 237 105 106 128 122 135 74 83 113 106 95 75 54 93 110 111 112 123 133 137 142 144 148 156 155 154 150 145 145 153 157 145 139 137 136 136 137 139 140 142 143 142 143 144 145 144 143 144 145 145 144 143 142 142 139 136 132 129 126 123 120 121 124 126 130 133 136 139 136 131 129 132 130 119 113 106 106 102 100 131
54 306 81 101 182 206 225 249 280 291 287 295 282 279 285 167 146 126 102 110 148 148 180 132 127 125 95 101 88 75 91 105 118 122 129 135 133 134 142 152 159 158 154 150 151 150 151 153 143 140 141 139 139 140 141 141 142 141 142 144 145 146 145 145 145 146 147 146 146 145 144 142 138 135 129 126 123 121 120 124 131 134 140 143 138 138 135 126 125 125 119 115 112 105 97 90 108
148 202 96 139 207 200 249 251 276 292 293 290 271 290 330 69 104 155 110 100 142 172 236 135 141 120 96 119 104 93 91 106 124 128 134 135 134 136 145 152 157 158 154 152 159 153 149 153 147 143 142 140 141 141 142 143 143 143 144 146 146 148 148 148 148 149 150 150 150 149 147 145 141 138 134 132 126 124 123 128 137 140 147 147 139 139 138 132 130 128 125 122 116 106 95 87 87
185 194 118 224 261 220 259 255 277 291 289 279 275 311 341 39 138 160 100 76 69 142 106 113 128 97 94 134 107 121 112 120 124 128 134 131 132 138 147 154 156 159 156 158 165 159 153 156 152 146 144 144 144 143 145 146 146 147 148 149 150 152 153 153 154 154 155 154 154 154 154 150 147 144 141 140 137 132 129 133 140 145 152 150 148 148 143 139 135 131 128 126 125 116 99 92 84
183 200 112 176 296 289 257 229 262 297 285 272 276 340 24 358 331 35 79 94 17 111 112 118 139 100 151 171 152 159 134 127 123 126 131 126 126 135 148 152 153 157 160 163 163 160 158 156 153 150 150 148 147 148 149 151 151 152 152 154 155 156 158 158 159 160 159 158 159 161 162 160 157 155 152 149 146 142 138 139 143 147 151 154 157 154 149 144 137 132 129 130 133 129 114 106 94
175 133 92 200 262 268 256 228 201 343 281 274 300 0 54 345 355 44 38 107 111 43 104 159 244 133 166 172 139 141 135 130 126 127 128 125 125 132 145 147 149 156 161 162 158 160 161 158 157 154 154 153 153 154 153 154 154 156 157 158 159 160 161 162 164 165 164 163 165 165 166 166 164 162 161 160 157 153 149 148 148 149 152 159 163 159 154 149 141 136 133 133 132 130 123 119 109
135 111 141 242 240 232 236 218 112 323 288 308 323 348 81 351 343 42 31 79 97 28 32 62 5 101 144 135 127 134 135 131 127 126 126 127 128 129 137 142 144 150 156 159 160 164 164 163 161 157 159 159 160 158 156 156 156 159 161 162 163 164 165 167 169 169 170 172 174 172 169 170 167 166 166 167 171 170 161 154 154 153 156 163 166 164 160 155 149 142 139 140 135 128 122 122 120
112 124 176 227 231 229 204 138 329 318 307 316 311 327 85 43 320 352 48 69 81 54 33 54 52 66 100 116 126 132 134 132 129 127 128 129 128 124 130 138 141 145 153 160 166 166 166 166 164 163 165 165 166 165 162 160 161 164 166 168 169 168 171 176 176 175 178 181 181 178 172 171 170 171 173 175 180 182 172 161 161 161 162 166 167 169 169 163 159 151 149 152 146 138 132 130 129
145 155 193 230 220 240 253 148 293 298 292 312 304 318 35 132 247 331 71 95 93 75 40 63 81 83 94 112 122 130 135 134 131 129 129 132 134 133 135 141 144 150 158 164 167 168 169 170 170 172 171 172 174 172 170 169 169 172 174 177 177 177 180 183 185 183 184 184 182 179 173 170 171 173 179 183 186 188 180 170 169 168 167 168 168 176 181 170 168 165 164 170 168 165 161 157 156
190 169 220 249 223 255 282 232 252 254 266 307 306 319 4 305 285 15 113 113 110 120 130 104 108 112 111 116 122 131 133 127 128 129 131 138 142 142 142 147 151 155 161 164 166 167 171 172 174 178 178 180 180 179 178 178 178 181 185 186 186 187 187 188 191 190 187 188 184 180 177 172 172 175 180 188 194 192 181 177 177 172 170 172 170 180 189 175 170 173 178 186 189 198 193 200 194
211 170 212 242 223 251 263 243 249 260 268 265 260 348 352 311 328 16 132 110 130 179 170 148 139 135 130 132 131 132 126 119 125 129 134 139 141 141 143 147 150 153 158 162 163 165 171 175 179 182 186 186 187 188 185 186 187 188 190 191 193 194 194 195 196 196 193 195 190 185 184 176 176 180 184 189 195 192 183 184 182 176 177 179 175 181 191 183 179 182 190 202 207 216 206 197 191
248 229 226 240 233 245 258 250 250 258 278 284 307 31 319 309 348 328 43 141 218 216 175 150 144 144 140 139 132 125 118 119 127 134 138 139 139 138 138 140 144 151 159 163 164 169 175 180 184 185 190 192 193 195 192 194 193 194 195 194 199 200 202 202 200 201 201 204 201 197 194 182 180 186 192 195 192 189 188 189 185 183 185 187 187 187 190 193 197 196 202 214 217 220 209 191 184
238 265 250 250 240 234 255 250 237 237 261 284 294 191 234 6 348 320 51 190 232 158 137 135 136 135 130 127 124 121 119 120 122 132 144 144 145 146 141 142 148 155 162 169 169 175 180 180 185 189 192 194 196 198 198 199 200 201 200 199 205 207 209 208 205 204 206 213 212 208 203 193 192 195 203 205 196 193 193 192 188 190 190 194 197 191 192 197 205 209 212 213 210 209 195 186 190
206 258 261 254 241 234 247 240 233 237 232 236 231 297 255 33 318 327 54 41 118 113 120 122 119 115 113 111 110 114 116 113 104 112 142 150 152 151 145 147 153 156 161 174 176 179 182 179 184 190 193 194 196 201 203 204 205 204 202 202 208 214 216 213 211 207 208 217 219 215 209 204 202 204 214 210 199 197 196 192 190 195 198 201 201 198 199 201 209 221 231 225 206 197 185 188 206
209 240 253 252 246 238 241 233 233 249 243 235 224 228 246 221 159 87 81 93 105 114 117 116 113 108 108 108 110 116 117 115 112 117 132 148 151 147 145 150 155 158 164 175 178 178 180 181 187 192 195 195 197 203 205 206 207 204 202 202 208 220 222 218 217 216 214 220 224 221 215 213 211 211 217 209 200 198 197 195 194 199 204 205 204 204 207 212 220 231 246 243 223 211 208 221 241
221 228 247 251 254 249 250 246 237 257 255 227 225 238 258 233 130 66 79 114 111 113 115 117 116 112 111 113 119 126 123 123 124 126 132 144 144 138 140 149 158 166 172 176 175 172 181 190 192 195 197 194 194 199 201 202 202 201 201 203 210 218 222 220 222 223 220 221 222 222 217 215 216 216 214 207 203 201 199 200 202 207 210 209 208 208 214 219 222 228 239 238 231 233 240 254 271
255 254 261 249 249 246 245 257 264 288 269 212 215 238 259 247 124 88 259 132 123 118 118 122 121 119 118 118 124 130 131 136 136 133 141 152 148 140 140 151 162 172 180 179 174 170 180 197 196 195 195 191 189 191 195 196 194 196 200 204 209 213 215 216 219 220 216 214 216 216 212 208 208 211 212 208 207 207 205 205 208 212 212 211 212 214 219 221 220 226 226 224 230 236 250 269 283
292 277 280 269 265 259 243 265 280 303 281 224 204 240 273 336 128 157 173 154 134 125 124 127 124 122 120 120 127 134 135 141 141 140 153 167 161 149 147 157 165 173 178 174 175 173 179 195 196 193 192 188 186 186 190 191 188 191 197 201 204 208 209 210 211 213 210 206 207 208 206 206 205 206 209 207 207 213 213 208 207 210 212 215 215 214 217 219 220 221 214 215 225 229 246 266 275
291 280 280 290 333 314 279 279 264 215 282 244 162 307 303 306 185 156 154 154 138 125 127 131 127 125 122 124 130 135 135 141 146 150 165 173 167 153 151 159 166 172 172 165 171 175 179 190 194 193 191 186 183 183 185 185 184 186 192 195 200 207 209 209 209 208 207 201 199 201 203 208 207 206 208 207 208 215 218 212 210 213 214 217 215 211 214 216 215 211 205 213 222 225 244 259 264
293 311 306 310 359 317 263 241 265 263 237 186 114 310 273 281 153 152 151 150 139 127 136 139 134 132 132 137 136 138 143 148 152 157 172 175 165 156 155 161 168 175 176 173 178 182 186 192 192 192 188 183 180 180 181 180 179 179 182 188 195 203 204 206 210 208 207 204 201 201 206 211 209 208 209 211 213 214 218 221 219 216 211 211 211 209 212 209 205 203 203 211 220 229 242 254 259
306 329 355 8 0 284 258 217 250 276 236 151 129 239 258 274 145 158 158 152 144 136 147 147 142 144 142 145 141 146 158 159 157 160 172 172 166 162 161 162 168 174 175 180 187 190 192 192 190 188 182 180 180 178 178 174 170 166 169 178 185 193 197 200 206 207 207 208 208 208 213 215 212 212 211 213 216 214 217 221 218 214 209 208 207 207 206 203 203 202 200 205 216 231 242 253 257
342 344 324 342 244 270 292 260 202 223 245 140 152 226 268 243 162 165 158 154 145 138 154 152 147 149 145 148 144 149 164 159 159 163 169 171 170 167 163 162 165 164 159 160 168 173 177 180 183 181 176 176 174 170 171 169 163 156 156 162 169 181 193 195 197 204 209 211 212 213 218 219 218 219 216 214 214 212 213 214 212 211 208 204 202 205 202 201 205 197 192 204 219 233 240 250 248
344 60 263 284 265 292 312 289 217 209 228 163 181 207 285 253 176 166 156 158 148 141 159 156 151 152 147 150 149 150 158 160 167 171 174 175 175 171 163 161 160 153 146 143 146 152 156 161 167 167 164 165 161 157 161 161 158 155 154 152 149 154 175 183 185 200 213 217 217 219 222 224 225 226 223 219 213 208 211 212 211 203 198 198 193 198 202 202 202 196 197 210 226 231 225 234 235
317 357 270 257 243 264 286 286 258 206 200 208 206 201 256 268 163 163 158 161 154 148 159 155 151 150 148 152 153 158 163 170 180 180 183 181 179 177 163 160 158 148 144 142 144 146 147 150 155 156 156 157 155 153 152 153 154 152 152 149 140 132 140 158 164 181 197 205 212 217 226 229 229 226 222 219 214 208 208 210 211 200 196 199 192 195 204 204 201 203 209 213 222 222 218 234 237
248 279 291 280 258 246 252 267 259 182 190 205 192 202 244 231 144 164 171 170 160 150 151 150 151 149 153 160 159 167 173 178 185 182 183 180 180 173 160 167 163 149 146 146 146 147 148 149 151 151 152 153 150 148 145 149 151 145 146 146 140 132 132 140 140 139 144 152 161 174 198 202 210 211 204 208 213 208 203 204 206 200 198 203 198 199 207 209 205 205 211 215 219 218 227 245 248
230 237 195 233 276 267 252 260 241 159 170 193 170 186 231 241 168 177 182 173 150 139 143 146 153 153 157 165 165 174 182 184 185 180 177 176 173 160 160 174 162 148 147 148 148 150 150 150 150 150 152 152 149 147 145 145 144 140 142 143 141 139 139 144 146 143 136 134 135 130 127 117 137 175 180 183 185 191 194 196 198 195 196 203 205 205 208 211 210 210 213 217 223 225 240 255 265
231 216 182 252 293 304 291 289 257 144 142 185 166 149 156 282 198 173 151 141 136 139 145 148 154 160 163 166 169 178 192 190 177 174 173 173 170 165 169 171 157 148 148 150 150 151 153 153 153 151 154 156 154 153 152 149 143 141 143 144 145 145 147 148 146 146 139 131 130 125 114 101 108 129 145 152 148 158 156 150 169 179 191 198 199 202 203 204 206 210 214 218 225 229 238 251 265
220 87 356 315 327 293 298 325 357 88 115 134 131 121 142 237 227 148 138 148 164 157 154 160 164 169 170 166 168 174 184 176 162 170 176 173 173 177 176 168 157 150 149 152 154 155 157 157 155 154 157 160 160 158 156 154 149 145 145 147 149 149 152 150 141 137 133 128 125 117 110 100 108 106 97 113 125 130 120 103 103 117 145 168 177 187 194 198 202 208 213 215 218 221 225 234 247
7 63 50 317 298 295 305 330 359 33 92 270 218 125 190 252 277 151 153 160 181 175 167 169 167 166 173 173 168 165 161 162 167 178 182 173 174 179 173 167 162 154 152 155 156 157 158 158 157 158 160 162 163 160 157 156 155 153 149 147 148 147 148 152 148 144 143 140 135 131 128 120 125 116 96 107 116 116 116 106 101 106 116 137 160 175 182 194 204 215 220 217 217 223 227 226 226
298 262 109 270 276 322 308 312 345 15 66 139 125 88 274 292 343 128 159 164 176 181 174 169 168 170 178 181 169 160 160 165 172 179 181 166 169 176 169 166 162 155 154 156 158 161 161 161 162 162 165 167 167 163 161 161 159 157 152 147 146 144 142 146 147 147 151 151 147 146 143 132 134 131 117 114 110 112 122 117 106 105 107 120 143 157 159 175 194 212 220 214 217 222 219 222 219
286 234 176 196 234 223 247 288 342 358 4 54 76 30 327 346 10 346 146 154 169 175 169 172 188 180 171 176 171 164 164 167 168 173 181 166 166 173 167 165 162 157 158 160 163 165 163 166 166 166 169 170 170 168 169 169 163 156 149 142 140 135 134 138 139 140 142 142 139 134 126 126 130 122 112 111 110 110 115 118 108 101 96 102 113 115 110 109 128 167 192 196 210 213 198 204 211
307 256 205 195 194 226 261 304 18 28 350 337 78 50 297 333 353 292 315 167 179 181 178 180 189 182 167 175 178 168 162 170 171 171 177 167 158 167 168 166 164 161 164 165 168 169 169 170 169 170 172 173 178 181 179 175 167 159 153 146 141 136 136 139 139 139 139 139 135 130 126 124 121 114 98 95 105 108 106 113 111 103 100 103 105 103 97 90 89 104 143 190 210 211 193 189 187
297 248 200 177 161 178 240 301 47 77 291 298 85 119 257 320 326 280 278 171 184 193 193 184 175 180 185 185 182 169 162 176 180 173 169 157 155 164 170 171 167 167 169 170 172 174 174 173 172 174 177 179 183 184 181 175 168 165 163 158 151 146 145 144 142 141 141 143 142 139 140 137 128 118 99 85 99 118 120 122 115 109 114 117 114 108 101 94 89 90 94 117 182 199 199 189 175
231 245 189 153 135 135 149 117 91 191 238 325 17 97 138 305 288 261 149 126 205 220 210 193 181 184 184 185 186 172 165 170 169 165 163 160 166 168 172 175 172 171 172 173 176 177 179 178 176 177 180 180 177 175 177 175 169 167 165 161 157 154 151 147 145 143 140 141 139 135 133 137 139 131 113 89 92 115 126 124 118 113 116 120 120 115 110 105 95 90 90 92 108 148 188 185 166
238 240 203 170 153 151 140 107 91 13 49 334 319 47 93 279 280 285 67 103 216 219 196 184 183 183 178 180 183 168 160 165 164 168 172 173 175 173 175 178 176 174 176 177 179 180 182 182 178 180 184 180 174 172 174 174 170 167 165 162 158 157 154 149 147 144 141 140 139 137 135 136 142 143 135 108 97 105 114 117 115 110 112 118 118 112 112 110 101 94 93 95 100 103 110 120 131
246 222 208 13 94 113 103 100 92 47 57 260 275 352 98 270 290 317 7 62 203 204 199 187 169 166 166 164 167 158 152 163 172 177 177 179 181 179 177 177 176 177 178 179 181 182 184 184 181 183 187 182 176 175 174 172 169 167 167 163 159 159 156 152 149 148 151 151 147 146 144 141 142 143 143 133 116 109 111 112 106 99 104 116 120 115 114 114 109 103 99 99 105 104 104 103 103
241 55 39 21 19 23 49 75 85 68 14 257 254 172 115 286 289 279 288 262 184 154 130 103 129 144 153 150 153 155 155 167 179 180 173 175 182 182 177 175 176 177 177 178 181 183 184 185 184 185 189 187 181 180 179 176 172 170 169 166 163 163 160 156 154 154 158 159 155 152 149 145 144 143 139 136 131 122 117 112 103 95 96 103 110 114 118 119 117 116 112 108 108 109 110 107 99
89 69 65 47 357 5 18 6 48 91 251 263 262 143 102 115 272 260 279 293 184 148 135 112 117 134 138 133 140 146 150 158 161 158 147 151 167 175 175 176 178 177 176 177 180 184 186 185 185 185 187 188 185 184 184 180 174 171 169 167 166 166 165 162 160 161 164 164 160 156 153 151 149 149 146 137 134 133 127 119 111 104 100 97 97 103 110 117 119 121 124 121 117 118 120 118 107
84 90 77 75 6 12 12 327 2 156 235 252 255 70 88 221 246 256 290 311 304 150 130 125 127 126 121 121 125 125 128 129 126 131 139 150 162 168 173 177 181 182 180 179 179 183 186 185 185 184 186 187 183 183 186 181 172 168 166 167 170 171 172 170 166 166 168 167 165 162 161 159 156 154 152 144 139 141 139 132 125 116 111 103 96 98 99 108 116 114 116 121 124 124 123 120 114
134 153 111 110 107 68 315 275 305 248 259 269 281 79 57 283 271 269 301 331 46 88 79 101 112 111 111 109 108 106 103 107 110 113 122 143 167 171 174 179 184 186 186 185 184 184 185 185 185 182 178 176 174 177 185 180 169 166 166 171 176 176 179 178 173 172 173 172 170 168 168 163 158 156 154 149 145 146 148 145 139 132 127 118 109 106 100 99 107 104 101 106 114 122 125 118 112
190 173 128 134 145 139 193 211 186 224 255 295 337 56 157 204 268 296 7 52 75 83 76 77 77 84 99 93 88 90 88 92 98 95 97 102 132 167 181 184 186 186 186 189 189 188 186 180 170 129 99 132 162 176 184 180 170 165 168 178 182 182 185 186 181 178 178 178 175 172 170 165 159 157 156 154 150 148 150 151 150 147 142 136 128 122 109 99 103 105 104 102 102 111 128 125 117
270 112 95 148 180 151 156 174 175 176 160 304 319 209 208 195 258 313 64 83 82 87 89 85 75 63 76 79 76 80 80 78 80 79 79 68 73 117 176 188 185 181 184 188 188 188 187 178 165 104 91 148 177 185 186 183 174 164 168 183 190 189 188 189 188 186 184 181 179 177 174 168 162 160 159 159 157 152 150 151 154 155 152 147 142 137 127 115 115 116 112 108 104 104 121 128 126
280 47 108 224 177 131 120 177 191 101 94 272 256 194 282 333 347 354 52 89 105 116 117 108 107 97 85 87 89 85 82 78 77 77 70 56 58 66 118 177 179 176 180 184 184 188 192 194 195 192 181 181 186 187 186 185 179 169 168 185 196 196 191 189 189 189 188 186 184 184 180 173 169 165 164 163 163 160 157 154 152 155 157 156 152 151 143 132 131 129 117 111 109 105 114 124 129
115 151 203 202 66 87 109 125 356 56 108 265 272 174 233 51 259 336 20 48 89 120 131 123 124 123 112 114 113 103 103 100 95 89 73 60 58 60 74 123 163 173 178 181 184 191 195 200 203 194 186 188 190 186 184 186 184 176 173 185 198 200 196 193 193 191 190 190 191 191 189 183 177 172 168 166 166 164 161 159 154 152 158 161 160 159 156 146 139 134 125 117 117 114 114 116 124
125 174 181 97 91 330 48 112 135 103 165 274 320 195 141 133 235 301 353 335 87 29 61 112 126 131 124 119 108 97 96 89 80 76 68 60 57 61 73 89 123 156 171 178 183 190 194 200 205 199 193 195 193 186 181 184 186 181 182 191 199 200 199 197 195 195 194 195 195 196 196 192 185 180 175 170 169 168 162 160 159 154 159 164 166 164 164 165 155 146 146 144 147 152 132 112 115
38 67 26 53 134 163 147 135 153 139 165 235 330 5 313 237 239 289 299 230 153 107 56 57 100 121 121 120 110 96 95 91 85 82 75 70 67 68 78 85 96 119 145 167 179 187 193 200 208 208 203 193 188 186 182 186 196 194 191 195 198 198 198 198 199 199 200 199 199 198 199 197 192 187 183 177 173 172 167 164 163 161 164 169 174 174 173 178 178 175 170 164 169 175 160 135 122
348 356 0 40 67 101 130 105 90 118 138 174 133 35 276 256 247 277 285 247 152 133 126 123 129 121 118 122 116 109 107 102 101 99 91 88 84 80 84 90 95 104 118 141 166 184 192 198 204 206 201 188 182 185 184 188 197 201 200 195 193 193 192 195 202 203 202 202 201 198 196 196 195 192 191 187 183 179 177 177 177 176 174 171 175 179 181 188 193 195 190 187 192 192 182 178 175
220 243 204 133 113 110 114 18 316 108 130 160 145 153 265 260 215 233 247 190 145 139 133 133 137 128 124 122 117 116 115 111 113 112 103 97 94 91 92 95 98 101 108 125 148 170 183 191 198 199 195 186 181 183 185 186 190 197 202 196 193 196 195 198 205 206 205 203 200 196 193 192 194 195 195 195 192 190 190 192 195 197 195 187 183 185 188 194 201 204 206 204 204 203 198 194 200
Height
772 772 771 772 771 772 774 775 787 790 791 802 793 787 778 764 763 761 758 753 756 754 742 741 739 738 742 753 757 758 760 762 765 771 774 765 760 764 766 768 771 773 777 780 782 784 786 787 787 787 787 787 788 789 792 794 796 798 799 801 802 803 803 804 804 805 806 807 808 809 810 810 811 812 812 813 814 815 816 817 818 818 819 819 820 820 821 821 821 822 822 822 822 823 823 823 824
772 772 771 772 770 773 777 776 792 799 799 804 789 782 773 761 762 761 756 751 756 752 741 741 741 742 744 749 750 754 762 761 757 760 762 760 762 766 766 769 771 774 777 780 783 784 786 787 788 788 787 788 788 790 792 795 797 799 800 802 803 804 804 805 806 806 807 808 809 810 810 811 812 813 813 814 815 815 816 817 818 819 819 820 821 821 822 822 822 823 823 823 823 823 824 824 824
772 772 771 772 771 773 777 779 793 803 805 802 787 778 768 763 761 755 749 745 748 743 740 741 744 748 748 752 751 756 766 761 756 757 760 761 764 767 769 771 773 776 777 780 782 784 786 787 788 788 787 788 789 791 793 795 797 799 801 802 804 805 805 806 807 807 807 809 809 810 811 812 813 813 814 815 815 816 817 818 819 819 820 821 821 822 823 823 823 824 824 824 824 824 824 825 825
771 771 771 771 774 776 780 786 792 799 802 797 789 775 763 761 755 749 742 738 740 738 741 744 751 751 748 757 756 758 765 760 757 756 760 763 765 770 773 775 777 778 779 780 782 783 786 787 789 789 789 789 790 792 793 796 798 800 802 803 804 805 806 807 807 808 809 809 810 811 812 813 813 814 815 815 816 816 817 818 819 820 821 821 822 823 823 824 824 824 825 825 825 825 825 826 826
771 771 771 771 777 779 781 789 791 796 793 788 786 771 759 756 751 747 739 736 737 738 741 745 755 754 749 756 755 760 763 759 759 756 760 766 768 773 777 780 783 785 784 783 784 785 787 789 791 791 791 791 792 793 795 797 799 801 803 804 805 806 807 807 808 809 810 810 811 812 813 813 814 815 815 815 816 817 818 818 819 820 821 822 822 823 824 824 825 825 825 825 826 826 826 826 827
770 771 771 771 775 776 784 792 793 794 782 777 780 769 759 753 750 748 740 738 737 737 738 742 752 754 756 756 752 758 758 757 760 759 763 768 772 774 777 782 786 791 792 790 789 789 791 793 794 794 794 794 794 795 796 798 800 802 804 805 806 807 808 808 809 810 810 811 812 813 813 814 815 815 816 816 817 817 818 819 820 820 821 822 823 824 824 825 825 825 825 826 826 826 827 827 828
770 772 773 775 776 777 790 795 793 791 775 770 773 765 759 752 748 747 743 744 744 741 738 742 744 751 762 757 756 757 753 756 758 761 764 767 771 771 774 777 781 788 794 798 796 794 795 796 796 797 796 795 796 797 798 799 801 803 805 807 807 808 809 809 809 810 811 812 813 813 814 815 815 816 816 817 817 818 819 819 820 820 821 822 823 824 824 825 825 826 826 826 827 827 827 827 828
770 773 774 778 783 783 791 793 788 786 772 764 764 759 756 749 746 748 746 746 749 747 744 745 739 752 767 757 763 762 754 758 758 762 764 767 772 776 779 779 781 784 790 796 800 801 799 798 798 798 797 797 797 798 799 800 803 804 806 808 809 809 810 810 810 811 812 812 813 814 815 815 816 816 817 817 818 818 819 820 820 821 822 822 823 824 825 825 826 826 826 827 827 827 827 827 828
770 773 776 780 787 789 792 791 785 778 770 764 761 756 751 747 746 747 745 746 748 748 748 745 736 753 768 761 767 764 759 763 762 764 765 769 774 778 783 784 785 785 788 790 796 802 803 801 800 799 798 798 798 799 800 801 803 805 807 808 810 811 811 811 811 812 812 813 814 814 815 816 816 817 817 818 819 819 820 820 821 821 822 823 824 825 825 826 826 827 827 827 827 827 827 828 828
772 774 777 782 788 794 795 791 784 776 769 763 758 751 746 743 744 743 743 747 747 748 749 741 740 754 765 767 771 766 765 766 764 768 769 770 772 775 779 783 786 786 788 788 790 798 804 804 801 800 799 799 800 800 801 802 804 805 807 809 811 812 812 812 812 812 813 814 814 815 816 816 817 817 818 819 819 820 820 821 821 822 822 823 824 825 826 826 827 827 827 828 828 828 827 828 828
776 776 777 786 792 797 795 789 784 777 768 761 755 745 739 737 740 742 742 748 747 749 749 744 752 759 763 770 772 769 767 766 766 770 772 772 774 775 777 781 786 786 788 789 789 794 802 804 802 801 799 800 801 801 802 803 805 806 808 809 811 812 813 813 813 813 814 814 815 816 816 817 818 818 819 819 820 820 821 821 821 822 823 824 824 825 826 826 827 827 828 828 828 828 828 828 828
780 779 779 791 795 793 789 787 783 776 768 762 755 741 734 733 738 742 743 751 751 752 748 745 754 757 766 774 772 770 767 769 769 770 774 774 776 778 779 782 785 787 789 791 792 791 797 802 802 801 800 801 801 802 803 804 806 806 808 810 811 813 813 814 814 814 814 815 816 816 817 817 818 818 819 819 820 821 821 821 822 822 823 824 824 825 826 826 827 827 828 828 828 829 828 828 828
780 780 782 790 790 787 784 784 781 775 770 761 754 741 734 734 739 741 741 748 749 753 748 743 748 752 769 775 770 771 770 771 770 771 774 776 778 779 780 783 785 787 788 793 796 794 794 799 801 801 800 801 802 803 804 805 806 807 808 810 811 813 814 814 814 815 815 815 816 817 818 818 818 818 819 819 820 821 821 822 822 822 823 824 825 825 826 826 827 827 828 828 829 829 829 829 829
776 776 780 787 785 783 780 781 777 777 772 758 750 740 735 737 738 736 738 747 748 747 745 741 744 754 770 774 773 773 771 773 771 772 774 776 780 780 782 784 786 788 789 791 796 796 794 797 799 799 800 801 802 803 805 806 807 808 809 810 811 813 813 814 815 815 815 816 817 818 818 819 819 819 819 819 820 821 821 822 822 822 823 824 825 826 826 826 827 827 828 829 829 829 829 829 829
772 772 777 784 785 783 778 777 775 777 771 754 747 739 737 738 735 735 737 747 749 741 741 742 742 752 765 769 772 772 771 773 772 773 774 777 780 782 785 786 788 790 792 793 794 796 795 797 798 799 800 801 802 804 805 807 808 809 809 810 811 812 814 814 815 816 816 817 818 818 819 819 819 819 820 820 820 821 821 822 822 823 823 824 825 826 827 827 827 828 828 829 829 830 830 830 830
768 770 778 784 786 786 778 773 773 775 767 752 746 740 743 740 733 737 736 738 746 742 741 746 742 745 755 757 760 765 769 772 772 773 774 777 781 783 786 788 790 791 795 796 796 797 797 798 799 800 801 801 803 804 806 807 809 809 810 811 812 813 814 815 815 816 817 818 819 819 819 819 820 820 820 820 820 821 821 822 822 823 824 825 826 826 827 828 828 828 829 829 830 830 830 830 830
765 771 783 787 786 785 776 770 771 772 764 753 749 744 747 746 736 736 734 736 746 748 746 747 743 741 749 752 755 761 767 769 770 773 774 778 780 783 786 788 789 792 796 798 798 799 799 800 800 801 801 803 804 805 807 808 809 810 810 811 812 813 814 815 816 817 818 818 819 819 820 820 820 820 820 820 820 820 821 822 822 823 824 825 826 827 828 828 828 829 829 830 830 830 831 830 830
768 776 785 787 785 779 769 768 767 764 763 756 751 747 749 750 743 737 739 746 749 751 751 749 747 746 750 753 757 762 765 767 768 771 774 778 781 783 786 788 789 791 795 799 800 800 800 801 801 802 803 804 806 807 808 808 810 810 811 812 812 814 814 816 816 817 818 819 820 820 820 821 821 821 820 820 820 820 821 822 823 823 824 825 826 827 828 829 829 829 830 830 831 831 831 831 831
769 776 782 782 777 769 761 763 762 760 760 756 751 748 748 750 746 739 747 756 752 755 758 755 756 757 758 758 762 765 765 767 768 770 773 777 780 782 784 787 789 790 793 798 800 800 800 801 802 803 804 805 806 807 808 808 809 810 811 812 813 814 815 816 816 817 818 819 820 820 821 821 821 821 820 820 820 820 821 822 823 823 824 825 826 827 828 829 829 830 830 831 831 831 831 831 831
767 772 780 775 767 763 759 759 758 757 756 754 753 748 747 748 744 742 749 758 754 756 760 759 763 764 764 765 766 767 768 770 772 772 774 776 777 778 781 784 787 790 792 795 797 799 800 801 803 804 805 806 807 807 808 808 809 810 811 812 814 815 815 816 817 818 819 819 820 820 820 821 821 820 820 820 820 820 821 822 823 823 824 825 826 827 828 829 830 830 830 831 831 831 832 832 832
765 768 773 767 761 762 757 755 754 753 753 752 752 750 749 745 742 743 748 757 760 756 753 753 759 761 763 765 767 770 771 774 775 775 774 775 777 778 780 783 786 790 793 794 795 797 799 801 803 804 805 806 806 807 808 809 809 811 812 813 814 815 816 817 817 819 819 819 819 820 820 820 820 820 820 820 820 821 821 822 822 823 824 825 826 827 828 829 829 830 830 831 831 832 832 832 832
765 764 764 760 759 762 755 752 753 751 751 751 752 752 750 744 743 745 746 754 757 750 746 747 750 753 757 762 767 771 774 777 778 778 776 776 777 779 781 784 787 790 792 793 793 796 798 800 802 803 805 805 806 807 808 809 810 811 812 813 814 815 816 817 818 819 819 819 819 819 819 820 820 819 820 820 820 820 820 821 822 823 824 824 825 826 828 828 829 830 830 831 831 831 832 832 832
767 764 759 757 757 759 754 750 751 750 751 752 751 749 747 748 749 747 746 749 747 743 744 746 748 752 755 761 767 772 776 779 781 781 779 778 778 779 781 783 786 788 790 792 793 794 796 798 800 802 804 805 806 807 808 809 810 811 812 813 814 815 816 817 818 819 819 819 819 819 819 819 819 819 819 819 820 820 820 821 822 823 823 824 824 826 827 828 829 829 830 830 831 831 831 832 832
766 766 759 755 754 754 751 749 749 749 751 749 746 746 747 750 752 749 749 748 744 743 745 747 751 754 758 763 768 772 776 779 781 783 782 780 779 780 781 782 785 787 789 792 792 794 796 798 800 802 803 804 806 807 808 809 810 811 812 813 815 816 817 817 818 818 819 818 818 818 818 819 819 819 819 819 819 819 819 820 821 822 822 823 824 825 826 827 828 829 829 830 830 831 831 832 831
763 763 757 752 751 749 746 747 748 747 748 746 745 747 748 747 748 752 754 750 746 746 748 750 753 757 761 765 770 773 775 778 780 781 783 785 783 782 782 782 785 787 789 791 792 794 797 799 800 802 803 805 806 807 808 809 810 811 812 813 815 815 816 817 817 818 818 818 818 818 818 818 818 818 818 818 818 818 819 820 821 821 822 823 823 824 825 826 827 828 829 829 830 831 831 831 831
758 756 754 751 750 746 744 745 745 745 745 743 746 748 746 743 746 757 756 750 749 750 753 754 755 759 763 767 770 773 775 778 780 780 785 788 785 783 782 783 785 785 788 790 791 793 798 800 801 802 804 805 806 807 808 809 810 811 812 813 814 815 816 817 817 817 817 817 817 817 817 817 817 817 817 817 818 818 818 819 820 821 821 822 823 823 824 825 826 827 828 829 829 830 831 831 831
752 752 752 750 749 744 743 744 742 743 743 741 746 748 744 740 747 762 760 751 751 753 757 757 757 761 765 768 771 773 775 777 777 779 785 788 786 783 782 784 784 784 787 788 787 790 796 801 802 802 803 805 806 807 808 809 810 811 812 812 813 814 815 816 816 816 816 816 816 816 816 816 817 817 817 817 817 818 818 819 820 820 821 821 822 823 824 825 826 827 827 828 829 830 831 831 831
751 752 752 748 746 744 742 743 741 742 743 740 742 744 743 742 747 758 758 753 752 754 759 759 759 763 766 770 772 773 774 775 776 777 781 783 782 779 779 782 782 782 785 785 786 788 792 799 802 802 803 804 805 807 808 809 810 810 811 811 813 813 814 815 815 815 815 815 815 815 815 815 816 816 816 817 817 818 818 818 819 820 820 821 822 823 823 824 825 826 827 828 829 830 830 830 830
750 749 754 750 746 745 741 741 741 742 744 737 740 749 749 746 749 753 753 755 754 755 760 761 762 765 768 770 772 774 775 776 777 778 778 779 779 776 776 780 780 780 782 783 786 788 791 796 800 801 802 804 805 806 808 809 809 810 810 811 812 813 813 814 813 813 813 814 814 814 814 814 815 815 816 817 817 818 818 819 819 820 821 821 822 822 823 824 825 826 826 827 828 829 829 830 830
749 748 752 753 754 751 741 739 739 741 743 735 743 762 758 749 752 751 750 754 756 759 761 762 764 766 768 769 771 774 775 776 777 778 779 778 777 776 775 778 780 780 781 782 785 788 792 796 799 801 802 804 805 807 807 808 809 809 810 811 812 812 812 812 812 812 812 813 813 813 814 814 814 814 815 816 817 817 818 819 819 820 821 821 822 822 823 824 825 825 826 827 828 828 829 829 830
752 752 753 758 764 755 740 739 741 743 741 734 746 766 759 750 755 751 748 751 753 760 762 762 765 765 766 767 770 773 773 775 776 778 780 778 776 776 776 777 780 781 781 782 784 788 792 795 798 800 802 804 805 807 807 808 809 810 811 811 812 812 812 812 811 811 812 812 813 813 813 813 813 814 815 816 816 817 817 818 819 820 820 821 821 822 823 824 825 825 826 827 827 828 828 829 829
755 762 765 765 766 758 744 739 741 743 741 735 747 763 756 750 754 748 748 751 752 759 763 763 764 765 766 768 769 772 773 774 775 777 778 777 776 776 776 778 781 782 781 782 784 788 791 794 797 800 802 804 805 807 808 809 810 810 811 811 811 811 811 812 811 811 812 813 813 813 813 813 813 814 814 815 815 816 817 818 819 819 820 820 821 821 822 824 824 825 825 826 827 827 828 828 828
761 766 772 769 766 765 754 741 737 739 741 740 746 756 753 748 749 746 747 751 752 758 762 762 764 765 767 768 770 772 774 774 774 775 775 775 776 776 777 779 783 784 782 782 784 788 791 794 797 799 801 803 805 806 808 809 810 810 810 811 812 812 811 812 812 812 813 814 814 814 814 813 814 814 814 814 815 816 816 817 818 819 820 820 820 821 822 823 824 824 825 826 826 827 827 827 828
770 769 772 770 767 767 761 746 735 735 742 744 744 749 750 746 747 747 747 748 751 756 760 762 764 766 768 769 771 772 773 774 773 772 774 774 775 777 777 780 784 784 783 784 786 789 791 795 797 798 800 803 804 806 808 809 810 810 810 811 812 812 812 813 813 814 814 815 815 815 814 814 814 814 814 814 814 815 816 817 818 818 819 819 820 820 821 822 823 824 824 825 826 826 827 827 828
772 772 771 770 765 765 763 751 736 734 740 744 746 750 748 746 748 748 747 746 748 753 757 761 763 766 769 770 771 772 772 771 770 769 772 774 776 778 779 782 784 783 783 785 787 790 792 795 797 798 800 802 804 806 807 809 809 810 810 811 812 813 814 814 815 816 816 817 816 816 815 814 814 814 814 814 815 815 816 817 817 817 818 818 819 820 821 822 823 823 824 824 825 826 827 827 828
768 770 769 769 767 764 758 745 732 731 740 745 748 749 746 746 749 750 748 747 749 753 757 760 762 764 767 769 770 771 771 769 767 768 771 774 776 778 781 784 784 782 783 785 788 790 792 795 797 798 801 802 804 806 807 808 809 810 810 811 812 813 814 816 817 817 818 818 817 817 816 815 815 815 815 815 815 816 816 817 817 817 817 817 818 820 821 822 822 823 823 824 825 826 827 827 828
763 764 765 764 766 762 749 739 730 726 738 747 745 746 748 746 747 749 751 753 754 756 760 761 762 764 765 767 768 770 770 768 767 769 771 774 776 779 782 784 784 783 783 785 787 790 792 794 796 798 801 802 804 805 806 807 808 809 810 811 813 814 815 816 818 819 819 819 819 818 818 817 817 816 816 816 816 816 816 816 816 817 817 817 818 819 821 821 822 822 823 824 824 825 826 827 827
757 760 762 761 763 759 745 739 735 728 736 749 748 747 750 745 744 747 749 756 759 756 759 761 760 762 762 763 766 768 769 769 770 771 772 774 775 778 781 782 782 782 783 784 786 789 791 793 795 797 800 802 803 805 806 807 809 810 810 812 813 815 816 817 818 819 819 819 819 820 819 819 818 818 817 817 817 817 817 816 816 816 817 817 818 819 820 821 821 822 822 823 824 825 826 827 827
754 759 762 762 760 754 744 738 736 733 737 748 749 748 751 747 744 746 745 750 756 752 752 754 756 759 761 762 763 765 767 769 770 771 772 774 775 778 780 781 781 781 782 784 786 788 791 793 795 797 800 802 804 805 806 808 810 812 812 813 814 816 817 818 818 819 819 819 820 820 820 821 820 819 818 818 817 817 817 817 817 817 817 817 818 818 819 820 820 821 821 822 823 824 825 826 827
755 759 763 765 759 756 753 743 737 737 740 746 746 745 750 750 745 746 745 746 750 751 750 751 752 754 756 757 759 762 765 767 769 770 772 774 776 777 778 780 781 781 782 784 786 788 790 792 794 797 800 802 804 805 807 808 811 813 814 815 815 816 817 818 818 819 819 819 820 820 820 821 821 821 820 819 818 818 817 817 817 817 816 817 817 818 818 819 819 820 820 821 822 823 824 825 827
756 756 760 762 757 755 754 749 742 740 742 742 743 749 752 750 749 748 747 749 750 752 753 753 753 752 753 756 757 758 760 763 765 768 770 772 774 776 777 779 780 781 782 783 785 787 789 792 795 798 800 802 804 805 807 808 810 812 814 815 816 816 817 818 819 820 820 820 821 821 821 821 821 821 820 819 819 818 818 818 817 817 816 817 817 818 818 819 819 820 820 821 822 823 824 825 827
759 753 753 753 754 754 752 751 750 753 756 747 749 766 765 753 751 749 748 753 753 751 752 754 755 755 757 759 758 757 760 762 762 763 765 769 772 775 777 778 779 780 782 783 786 787 789 792 795 798 800 802 804 805 807 808 809 811 812 813 814 815 817 818 819 820 821 821 822 822 822 822 822 822 821 821 820 819 819 819 818 817 817 817 818 818 819 819 820 820 821 821 822 823 824 826 827
764 752 745 749 751 753 754 754 756 763 767 755 751 769 773 758 750 747 748 752 753 752 752 753 756 757 757 758 757 756 759 762 763 763 764 768 771 773 775 777 778 780 782 784 786 788 790 793 796 798 800 802 803 805 806 807 808 810 811 812 813 815 817 819 820 821 822 822 823 823 823 824 824 824 823 823 822 821 821 820 820 819 819 819 819 819 820 820 820 820 821 822 822 824 825 825 826
761 746 741 749 750 752 755 755 759 763 762 758 755 761 773 769 755 750 751 750 750 750 750 753 756 756 756 757 756 754 756 761 764 766 767 769 770 772 774 776 777 779 781 783 786 788 790 793 796 798 800 801 803 804 805 806 807 809 811 813 814 816 817 819 820 821 822 823 823 823 823 824 825 825 825 825 824 823 823 822 822 821 821 821 821 821 821 821 821 821 822 822 822 824 825 825 826
749 739 741 745 745 749 751 752 758 761 762 769 765 761 775 778 759 751 754 751 750 749 747 751 754 754 755 757 757 755 757 760 762 764 766 768 769 771 772 774 777 779 780 782 784 787 789 792 795 797 799 800 802 803 804 805 806 808 811 813 816 817 818 819 820 821 822 823 823 823 824 824 825 826 826 826 826 825 824 824 824 823 823 823 822 822 823 823 823 823 823 823 823 824 825 825 826
740 737 741 741 742 746 749 753 756 761 770 776 770 765 777 782 763 752 754 750 750 752 750 750 751 752 754 756 758 757 758 760 761 762 763 765 768 769 772 774 777 779 780 782 784 786 788 790 793 795 797 799 800 802 803 804 805 807 811 814 816 818 819 819 820 821 822 823 823 823 824 824 825 826 827 827 827 826 826 825 825 825 824 824 824 824 824 824 825 824 825 825 825 825 826 826 827
736 739 743 743 747 747 750 757 757 769 782 777 770 767 773 783 771 756 755 751 749 753 755 753 751 752 753 754 757 757 759 760 760 762 764 766 768 770 773 775 777 779 781 782 783 785 787 788 791 793 795 797 799 801 803 804 804 806 810 813 816 818 819 819 819 820 822 823 823 823 824 825 825 827 828 828 828 827 827 826 826 826 826 826 826 826 826 826 826 826 826 827 827 827 827 828 828
738 744 747 752 759 756 759 765 765 781 790 778 772 767 769 783 774 757 752 749 750 751 751 753 754 754 754 755 756 757 758 760 761 764 766 768 770 772 774 776 777 779 780 782 782 784 785 787 789 791 793 795 797 800 802 803 803 805 809 813 816 819 819 819 818 819 820 822 823 823 824 825 826 827 828 828 828 828 827 827 827 827 827 827 827 827 827 828 828 828 828 828 829 829 829 829 830
743 748 751 763 776 776 779 781 781 788 787 776 774 768 771 781 769 756 753 749 751 750 745 748 752 754 756 755 756 757 758 760 762 766 767 769 771 772 774 776 777 778 779 781 782 782 784 785 787 789 790 793 796 800 804 804 803 805 808 813 817 820 821 820 819 819 820 821 822 823 823 824 825 827 828 828 828 828 828 828 828 828 828 828 828 828 829 829 829 829 829 830 830 830 830 830 831
745 750 754 766 782 791 796 796 795 792 782 775 773 769 776 780 765 758 757 753 753 752 749 751 751 755 758 757 758 758 760 762 764 766 767 769 770 771 773 774 775 777 778 780 781 782 784 785 786 787 788 792 795 801 806 806 804 805 808 812 816 819 821 822 821 820 820 821 822 822 823 823 824 826 827 828 828 828 828 828 829 829 829 829 829 830 830 830 830 830 830 830 831 831 831 831 832
744 746 751 759 769 782 791 792 792 790 783 778 773 773 781 780 766 757 756 756 757 756 756 757 757 759 759 759 760 761 763 765 765 767 769 770 770 771 772 773 774 777 778 780 781 783 785 786 789 792 792 794 798 802 806 806 803 804 808 811 814 817 819 821 822 822 821 821 822 823 823 824 825 826 827 828 828 828 829 829 829 829 829 830 830 830 831 831 831 831 831 831 831 832 832 832 832
747 746 751 756 755 762 776 784 783 783 786 782 776 777 778 770 761 756 756 759 761 761 762 762 765 766 764 764 765 765 766 768 768 769 770 771 770 770 771 772 774 777 778 780 781 784 785 786 790 795 797 798 799 800 802 802 802 803 807 811 814 816 817 820 822 822 822 822 823 824 825 825 826 826 827 827 828 828 829 829 829 830 830 830 830 831 831 831 832 832 832 832 832 832 832 832 833
748 749 753 752 747 750 768 784 784 781 788 787 781 780 775 768 765 761 761 764 765 766 766 766 770 773 772 772 771 771 772 772 773 773 772 772 771 770 771 771 774 776 778 780 781 783 784 784 786 791 795 796 796 797 799 800 800 801 805 810 813 816 816 818 820 821 822 822 823 825 826 827 827 827 827 828 828 828 829 829 829 830 830 830 831 831 831 832 832 832 833 833 833 833 833 833 834
744 751 747 745 749 752 760 778 787 790 794 788 781 781 779 780 778 769 765 768 769 770 768 768 770 773 775 775 773 774 775 775 775 775 774 774 772 772 772 772 774 776 778 780 781 783 784 784 785 787 792 794 795 796 797 799 799 800 804 809 812 815 816 816 818 820 821 822 823 825 827 828 828 828 828 828 828 828 829 829 829 830 830 830 831 831 831 832 832 833 833 834 834 834 834 835 835
734 741 738 743 758 763 763 775 786 794 797 791 785 786 786 785 782 774 770 770 769 773 773 770 770 770 771 772 771 772 772 773 774 774 775 775 775 775 774 774 776 777 779 780 781 783 784 784 785 787 790 793 795 797 797 800 802 801 803 807 811 814 815 815 817 818 820 821 822 824 826 827 828 828 828 828 828 828 828 829 829 829 829 830 830 830 831 831 832 832 833 834 834 835 835 835 836
731 735 739 745 756 762 766 773 779 785 794 794 792 793 790 782 776 774 774 771 768 772 775 774 773 771 769 769 770 771 771 773 774 775 776 777 778 778 777 777 777 778 779 780 782 784 784 785 786 788 790 793 795 795 796 801 804 802 802 805 808 811 813 814 816 817 818 819 820 822 824 826 827 828 828 827 828 828 828 828 828 828 828 829 829 830 830 831 831 832 832 833 834 834 835 836 836
745 745 747 751 756 761 766 771 775 777 787 795 795 797 793 780 772 772 770 769 768 768 772 775 775 773 772 770 770 772 773 774 775 776 777 779 780 780 780 780 779 779 780 780 782 784 784 786 787 788 790 792 793 794 795 798 800 800 802 805 807 809 811 813 814 815 816 817 819 820 822 824 825 826 827 827 827 827 827 827 827 827 827 827 828 828 829 830 831 831 832 832 833 833 834 835 836
751 751 750 752 756 761 769 778 778 773 779 788 789 794 792 777 771 772 767 765 767 767 769 773 775 775 775 773 772 772 774 775 776 776 778 780 781 782 782 782 782 782 782 781 782 783 785 786 787 788 791 792 793 795 796 798 798 800 804 806 808 810 811 812 813 813 814 815 817 818 820 821 823 824 824 825 825 825 825 825 825 826 826 826 826 826 827 828 828 829 830 830 831 832 833 834 835